Location: Владивосток
(43.1151°N, 131.8856°E)
Time: 21:34:30
(UTC+10:00)

DX 1 - Visible Passes

Search period start: 30 June 2022 00:00
Search period end: 10 July 2022 00:00
Orbit: 618 x 628 km, 98.4° (Epoch: 30 June)

Date Brightness Start Highest point End Pass type
(mag) Time Alt. Az. Time Alt. Az. Time Alt. Az.
30 Jun ? 22:37:33 10° N 22:41:56 74° WNW 22:46:17 10° SSW visible
01 Jul ? 22:55:57 10° N 23:00:09 47° WNW 23:04:20 10° SW visible
02 Jul ? 21:38:34 10° NE 21:42:12 25° E 21:45:49 10° SSE visible
02 Jul ? 23:14:28 10° N 23:18:19 31° WNW 23:22:09 10° SW visible
03 Jul ? 21:56:28 10° NNE 22:00:34 39° E 22:04:39 10° SSE visible
03 Jul ? 23:33:09 10° NNW 23:36:26 21° WNW 23:39:42 10° WSW visible
04 Jul ? 22:14:33 10° NNE 22:18:54 61° ESE 22:23:06 11° S visible
04 Jul ? 23:52:10 10° NNW 23:54:30 14° WNW 23:56:51 10° W visible
05 Jul ? 22:32:46 10° NNE 22:37:10 85° WNW 22:41:31 10° SSW visible
06 Jul ? 22:51:06 10° N 22:55:23 54° WNW 22:59:38 10° SSW visible
07 Jul ? 21:33:57 10° NE 21:37:22 22° E 21:40:45 10° SE visible
07 Jul ? 23:09:34 10° N 23:13:34 35° WNW 23:17:31 10° SW visible
08 Jul ? 21:51:46 10° NNE 21:55:45 33° E 21:59:35 10° SSE visible
08 Jul ? 23:28:12 10° NNW 23:31:42 24° WNW 23:35:11 10° WSW visible
09 Jul ? 22:09:48 10° NNE 22:14:05 52° E 22:18:00 12° S visible
09 Jul ? 23:47:03 10° NNW 23:49:46 16° WNW 23:52:29 10° W visible
